20040713,000015,8671,32.633167,-117.238000,NaN,16.985,33.397,43.041,  NaN,0.0, NaN, NaN, NaN, NaN,24.287,362.638,19.70,1008.96,86.20,NaN,193.0,NaN,3.2,NaN,293.3,NaN,3.5,NaN,NaN, NaN,NaN,136.0,NaN,NaN,NaN,2,0.7,000013,   NaN,99.8,     NaN,      NaN,NaN,0.0,NaN,16.989, NaN,NaN,NaN, NaN, NaN
20040713,000045,8701,32.633000,-117.238000,NaN,16.982,33.393,43.035,  NaN,0.0, NaN, NaN, NaN, NaN,24.286,362.820,19.70,1008.98,85.80,NaN,176.0,NaN,3.0,NaN,290.2,NaN,3.4,NaN,NaN, NaN,NaN,134.0,NaN,NaN,NaN,2,0.7,000043,   NaN,110.2,     NaN,      NaN,NaN,0.1,NaN,16.987, NaN,NaN,NaN, NaN, NaN
20040713,000114,8730,32.633000,-117.238000,NaN,16.935,33.386,42.981,  NaN,0.0, NaN, NaN, NaN, NaN,24.291,362.287,19.70,1008.92,86.20,NaN,171.0,NaN,3.1,NaN,292.2,NaN,3.5,NaN,NaN, NaN,NaN,145.0,NaN,NaN,NaN,2,0.7,000073,   NaN,122.0,     NaN,      NaN,NaN,0.1,NaN,16.939, NaN,NaN,NaN, NaN, NaN
20040713,000144,8760,32.633000,-117.237833,NaN,16.941,33.389,42.990,  NaN,0.0, NaN, NaN, NaN, NaN,24.292,362.204,19.70,1008.96,86.40,NaN,163.0,NaN,3.4,NaN,296.4,NaN,3.6,NaN,NaN, NaN,NaN,141.0,NaN,NaN,NaN,2,0.7,000103,   NaN,133.0,     NaN,      NaN,NaN,0.1,NaN,16.945, NaN,NaN,NaN, NaN, NaN
20040713,000214,8790,32.632833,-117.237833,NaN,16.818,33.406,42.893,  NaN,0.0, NaN, NaN, NaN, NaN,24.334,358.210,19.70,1008.88,86.70,NaN,146.0,NaN,3.5,NaN,286.6,NaN,4.1,NaN,NaN, NaN,NaN,136.0,NaN,NaN,NaN,2,0.6,000133,   NaN,145.3,     NaN,      NaN,NaN,0.1,NaN,16.822, NaN,NaN,NaN, NaN, NaN
20040713,000245,8821,32.632833,-117.237833,NaN,16.358,33.435,42.486,  NaN,0.0, NaN, NaN, NaN, NaN,24.462,345.991,19.60,1008.84,87.00,NaN,118.0,NaN,4.0,NaN,286.0,NaN,3.9,NaN,NaN, NaN,NaN,140.0,NaN,NaN,NaN,2,0.7,000163,   NaN,156.7,     NaN,      NaN,NaN,0.0,NaN,16.362, NaN,NaN,NaN, NaN, NaN
20040713,000315,8851,32.632667,-117.237667,NaN,15.771,33.430,41.922,  NaN,0.0, NaN, NaN, NaN, NaN,24.592,333.614,19.70,1008.89,87.60,NaN,103.0,NaN,3.1,NaN,284.6,NaN,2.9,NaN,NaN, NaN,NaN,114.0,NaN,NaN,NaN,2,0.7,000193,   NaN,166.1,     NaN,      NaN,NaN,0.0,NaN,15.775, NaN,NaN,NaN, NaN, NaN
20040713,000344,8880,32.632667,-117.237667,NaN,15.364,33.371,41.469,  NaN,0.0, NaN, NaN, NaN, NaN,24.637,329.366,19.70,1008.92,87.50,NaN,105.0,NaN,3.1,NaN,290.4,NaN,2.9,NaN,NaN, NaN,NaN,123.0,NaN,NaN,NaN,2,0.7,000223,   NaN,172.7,     NaN,      NaN,NaN,0.0,NaN,15.367, NaN,NaN,NaN, NaN, NaN
20040713,000414,8910,32.632667,-117.237500,NaN,15.285,33.356,41.378,  NaN,0.0, NaN, NaN, NaN, NaN,24.643,328.796,19.60,1008.81,87.90,NaN,104.0,NaN,3.2,NaN,289.6,NaN,3.7,NaN,NaN, NaN,NaN,116.0,NaN,NaN,NaN,2,0.6,000253,   NaN,176.0,     NaN,      NaN,NaN,-0.2,NaN,15.288, NaN,NaN,NaN, NaN, NaN
20040713,000445,8941,32.632500,-117.237500,NaN,15.551,33.349,41.622,  NaN,0.0, NaN, NaN, NaN, NaN,24.578,334.917,19.60,1008.92,87.80,NaN,103.0,NaN,3.7,NaN,284.7,NaN,3.7,NaN,NaN, NaN,NaN,147.0,NaN,NaN,NaN,2,0.6,000283,   NaN,178.1,     NaN,      NaN,NaN,-0.2,NaN,15.555, NaN,NaN,NaN, NaN, NaN
20040713,000515,8971,32.632500,-117.237500,NaN,15.925,33.346,41.972,  NaN,0.0, NaN, NaN, NaN, NaN,24.492,343.121,19.50,1008.85,87.60,NaN,99.0,NaN,3.4,NaN,282.1,NaN,3.7,NaN,NaN, NaN,NaN,104.0,NaN,NaN,NaN,2,0.6,000313,   NaN,179.4,     NaN,      NaN,NaN,-0.2,NaN,15.928, NaN,NaN,NaN, NaN, NaN
20040713,000544,9000,32.632500,-117.237333,NaN,16.481,33.363,42.521,  NaN,0.0, NaN, NaN, NaN, NaN,24.378,353.971,19.50,1008.91,88.10,NaN,101.0,NaN,4.0,NaN,290.8,NaN,4.4,NaN,NaN, NaN,NaN,103.0,NaN,NaN,NaN,2,0.7,000343,   NaN,179.6,     NaN,      NaN,NaN,-0.1,NaN,16.485, NaN,NaN,NaN, NaN, NaN
20040713,000614,9030,32.632500,-117.237167,NaN,16.930,33.385,42.975,  NaN,0.0, NaN, NaN, NaN, NaN,24.291,362.312,19.50,1008.93,88.30,NaN,108.0,NaN,4.2,NaN,287.7,NaN,3.5,NaN,NaN, NaN,NaN,105.0,NaN,NaN,NaN,2,0.8,000373,   NaN,177.1,     NaN,      NaN,NaN,0.0,NaN,16.934, NaN,NaN,NaN, NaN, NaN
20040713,000644,9060,32.632500,-117.237167,NaN,17.394,33.344,43.372,  NaN,0.0, NaN, NaN, NaN, NaN,24.150,375.762,19.50,1008.88,88.10,NaN,110.0,NaN,3.3,NaN,290.6,NaN,3.5,NaN,NaN, NaN,NaN,101.0,NaN,NaN,NaN,2,0.8,000403,   NaN,173.9,     NaN,      NaN,NaN,-0.1,NaN,17.398, NaN,NaN,NaN, NaN, NaN
20040713,000715,9091,32.632500,-117.237000,NaN,17.894,33.420,43.942,  NaN,0.0, NaN, NaN, NaN, NaN,24.088,381.654,19.50,1008.82,88.50,NaN,110.0,NaN,3.4,NaN,291.6,NaN,3.2,NaN,NaN, NaN,NaN,90.0,NaN,NaN,NaN,2,0.8,000433,   NaN,170.6,     NaN,      NaN,NaN,-0.1,NaN,17.899, NaN,NaN,NaN, NaN, NaN
20040713,000745,9121,32.632500,-117.237000,NaN,18.354,33.405,44.367,  NaN,0.0, NaN, NaN, NaN, NaN,23.964,393.511,19.50,1008.86,88.10,NaN,121.0,NaN,3.8,NaN,294.0,NaN,4.2,NaN,NaN, NaN,NaN,96.0,NaN,NaN,NaN,2,0.7,000463,   NaN,168.4,     NaN,      NaN,NaN,-0.1,NaN,18.358, NaN,NaN,NaN, NaN, NaN
20040713,000814,9150,32.632500,-117.236833,NaN,18.593,33.420,44.616,  NaN,0.0, NaN, NaN, NaN, NaN,23.916,398.054,19.50,1008.88,88.50,NaN,129.0,NaN,4.9,NaN,298.3,NaN,4.9,NaN,NaN, NaN,NaN,94.0,NaN,NaN,NaN,2,0.7,000493,   NaN,165.1,     NaN,      NaN,NaN,0.0,NaN,18.597, NaN,NaN,NaN, NaN, NaN
20040713,000844,9180,32.632500,-117.236833,NaN,18.781,33.419,44.797,  NaN,0.0, NaN, NaN, NaN, NaN,23.869,402.584,19.40,1008.77,88.10,NaN,135.0,NaN,4.2,NaN,306.1,NaN,4.4,NaN,NaN, NaN,NaN,114.0,NaN,NaN,NaN,2,0.7,000523,   NaN,163.8,     NaN,      NaN,NaN,-0.1,NaN,18.785, NaN,NaN,NaN, NaN, NaN
20040713,000915,9211,32.632500,-117.236667,NaN,18.926,33.430,44.951,  NaN,0.0, NaN, NaN, NaN, NaN,23.840,405.265,19.40,1008.85,88.30,NaN,122.0,NaN,3.9,NaN,287.6,NaN,4.0,NaN,NaN, NaN,NaN,103.0,NaN,NaN,NaN,2,0.7,000553,   NaN,162.0,     NaN,      NaN,NaN,-0.1,NaN,18.931, NaN,NaN,NaN, NaN, NaN
20040713,000945,9241,32.632500,-117.236500,NaN,18.947,33.449,44.993,  NaN,0.0, NaN, NaN, NaN, NaN,23.849,404.412,19.40,1008.79,88.30,NaN,123.0,NaN,4.1,NaN,291.6,NaN,4.3,NaN,NaN, NaN,NaN,104.0,NaN,NaN,NaN,2,0.7,000583,   NaN,161.3,     NaN,      NaN,NaN,0.0,NaN,18.951, NaN,NaN,NaN, NaN, NaN
20040713,001014,9270,32.632500,-117.236500,NaN,18.770,33.442,44.814,  NaN,0.0, NaN, NaN, NaN, NaN,23.889,400.675,19.40,1008.80,88.40,NaN,126.0,NaN,4.3,NaN,294.2,NaN,4.6,NaN,NaN, NaN,NaN,96.0,NaN,NaN,NaN,2,0.8,000613,   NaN,160.7,     NaN,      NaN,NaN,-0.1,NaN,18.774, NaN,NaN,NaN, NaN, NaN
20040713,001044,9300,32.632500,-117.236333,NaN,18.801,33.442,44.844,  NaN,0.0, NaN, NaN, NaN, NaN,23.881,401.427,19.50,1008.80,88.60,NaN,135.0,NaN,3.6,NaN,302.8,NaN,4.0,NaN,NaN, NaN,NaN,112.0,NaN,NaN,NaN,2,0.7,000643,   NaN,158.7,     NaN,      NaN,NaN,0.0,NaN,18.806, NaN,NaN,NaN, NaN, NaN
20040713,001115,9331,32.632500,-117.236333,NaN,18.626,33.454,44.688,  NaN,0.0, NaN, NaN, NaN, NaN,23.933,396.386,19.60,1008.85,88.80,NaN,136.0,NaN,4.7,NaN,297.4,NaN,5.0,NaN,NaN, NaN,NaN,125.0,NaN,NaN,NaN,2,0.7,000673,   NaN,157.0,     NaN,      NaN,NaN,-0.1,NaN,18.630, NaN,NaN,NaN, NaN, NaN
20040713,001145,9361,32.632500,-117.236167,NaN,18.346,33.444,44.405,  NaN,0.0, NaN, NaN, NaN, NaN,23.996,390.466,19.50,1008.78,88.40,NaN,137.0,NaN,4.8,NaN,292.6,NaN,5.0,NaN,NaN, NaN,NaN,113.0,NaN,NaN,NaN,2,0.6,000703,   NaN,155.7,     NaN,      NaN,NaN,-0.2,NaN,18.350, NaN,NaN,NaN, NaN, NaN
20040713,001215,9391,32.632500,-117.236167,NaN,18.386,33.423,44.419,  NaN,0.0, NaN, NaN, NaN, NaN,23.969,392.971,19.40,1008.85,88.30,NaN,134.0,NaN,5.2,NaN,289.1,NaN,5.5,NaN,NaN, NaN,NaN,107.0,NaN,NaN,NaN,2,0.7,000733,   NaN,155.4,     NaN,      NaN,NaN,0.1,NaN,18.391, NaN,NaN,NaN, NaN, NaN
20040713,001244,9420,32.632333,-117.236000,NaN,18.385,33.430,44.427,  NaN,0.0, NaN, NaN, NaN, NaN,23.976,392.370,19.40,1008.81,88.00,NaN,127.0,NaN,5.1,NaN,287.4,NaN,5.2,NaN,NaN, NaN,NaN,101.0,NaN,NaN,NaN,2,0.8,000763,   NaN,154.7,     NaN,      NaN,NaN,0.1,NaN,18.389, NaN,NaN,NaN, NaN, NaN
20040713,001314,9450,32.632333,-117.235833,NaN,18.415,33.428,44.454,  NaN,0.0, NaN, NaN, NaN, NaN,23.967,393.230,19.40,1008.82,88.30,NaN,134.0,NaN,5.1,NaN,294.8,NaN,5.3,NaN,NaN, NaN,NaN,135.0,NaN,NaN,NaN,2,0.8,000793,   NaN,155.7,     NaN,      NaN,NaN,0.1,NaN,18.420, NaN,NaN,NaN, NaN, NaN
20040713,001345,9481,32.632333,-117.235667,NaN,18.510,33.420,44.537,  NaN,0.0, NaN, NaN, NaN, NaN,23.937,396.061,19.40,1008.75,88.30,NaN,136.0,NaN,4.6,NaN,295.6,NaN,5.2,NaN,NaN, NaN,NaN,124.0,NaN,NaN,NaN,2,0.9,000823,   NaN,157.9,     NaN,      NaN,NaN,0.1,NaN,18.515, NaN,NaN,NaN, NaN, NaN
20040713,001415,9511,32.632333,-117.235500,NaN,18.667,33.432,44.702,  NaN,0.0, NaN, NaN, NaN, NaN,23.907,398.899,19.50,1008.81,88.90,NaN,126.0,NaN,4.5,NaN,284.8,NaN,5.2,NaN,NaN, NaN,NaN,123.0,NaN,NaN,NaN,2,0.8,000853,   NaN,160.9,     NaN,      NaN,NaN,0.1,NaN,18.671, NaN,NaN,NaN, NaN, NaN
20040713,001444,9540,32.632333,-117.235500,NaN,18.778,33.442,44.822,  NaN,0.0, NaN, NaN, NaN, NaN,23.887,400.837,19.50,1008.82,88.30,NaN,121.0,NaN,4.4,NaN,290.4,NaN,4.4,NaN,NaN, NaN,NaN,125.0,NaN,NaN,NaN,2,0.9,000883,   NaN,162.9,     NaN,      NaN,NaN,0.1,NaN,18.782, NaN,NaN,NaN, NaN, NaN
20040713,001514,9570,32.632333,-117.235333,NaN,18.825,33.440,44.866,  NaN,0.0, NaN, NaN, NaN, NaN,23.874,402.104,19.50,1008.80,88.40,NaN,120.0,NaN,4.7,NaN,286.4,NaN,5.0,NaN,NaN, NaN,NaN,116.0,NaN,NaN,NaN,2,0.9,000913,   NaN,163.7,     NaN,      NaN,NaN,0.1,NaN,18.830, NaN,NaN,NaN, NaN, NaN
20040713,001544,9600,32.632333,-117.235167,NaN,18.872,33.439,44.909,  NaN,0.0, NaN, NaN, NaN, NaN,23.861,403.349,19.50,1008.76,88.50,NaN,120.0,NaN,4.0,NaN,288.4,NaN,4.3,NaN,NaN, NaN,NaN,117.0,NaN,NaN,NaN,2,0.9,000943,   NaN,166.0,     NaN,      NaN,NaN,0.1,NaN,18.876, NaN,NaN,NaN, NaN, NaN
20040713,001615,9631,32.632167,-117.235000,NaN,18.960,33.438,44.993,  NaN,0.0, NaN, NaN, NaN, NaN,23.838,405.503,19.40,1008.78,88.40,NaN,115.0,NaN,3.6,NaN,291.2,NaN,4.0,NaN,NaN, NaN,NaN,118.0,NaN,NaN,NaN,2,0.8,000973,   NaN,167.0,     NaN,      NaN,NaN,0.1,NaN,18.965, NaN,NaN,NaN, NaN, NaN
20040713,001645,9661,32.632167,-117.235000,NaN,18.960,33.450,45.008,  NaN,0.0, NaN, NaN, NaN, NaN,23.847,404.674,19.40,1008.71,88.30,NaN,114.0,NaN,4.4,NaN,289.0,NaN,4.3,NaN,NaN, NaN,NaN,102.0,NaN,NaN,NaN,2,1.0,001003,   NaN,166.8,     NaN,      NaN,NaN,0.0,NaN,18.965, NaN,NaN,NaN, NaN, NaN
20040713,001714,9690,32.632167,-117.234667,NaN,18.943,33.448,44.989,  NaN,0.0, NaN, NaN, NaN, NaN,23.850,404.397,19.50,1008.76,88.90,NaN,130.0,NaN,5.6,NaN,297.4,NaN,6.0,NaN,NaN, NaN,NaN,97.0,NaN,NaN,NaN,2,0.9,001033,   NaN,164.0,     NaN,      NaN,NaN,-0.1,NaN,18.948, NaN,NaN,NaN, NaN, NaN
20040713,001744,9720,32.632167,-117.234667,NaN,18.809,33.447,44.858,  NaN,0.0, NaN, NaN, NaN, NaN,23.883,401.206,19.50,1008.70,88.60,NaN,134.0,NaN,4.7,NaN,300.5,NaN,5.2,NaN,NaN, NaN,NaN,102.0,NaN,NaN,NaN,2,0.7,001063,   NaN,160.7,     NaN,      NaN,NaN,-0.3,NaN,18.814, NaN,NaN,NaN, NaN, NaN
20040713,001815,9751,32.632167,-117.234500,NaN,18.731,33.446,44.781,  NaN,0.0, NaN, NaN, NaN, NaN,23.901,399.463,19.50,1008.65,88.50,NaN,131.0,NaN,4.6,NaN,294.8,NaN,5.2,NaN,NaN, NaN,NaN,74.0,NaN,NaN,NaN,2,0.9,001093,   NaN,157.5,     NaN,      NaN,NaN,-0.2,NaN,18.736, NaN,NaN,NaN, NaN, NaN
20040713,001845,9781,32.632167,-117.234500,NaN,18.782,33.436,44.818,  NaN,0.0, NaN, NaN, NaN, NaN,23.881,401.364,19.50,1008.66,88.50,NaN,138.0,NaN,5.3,NaN,303.1,NaN,5.4,NaN,NaN, NaN,NaN,63.0,NaN,NaN,NaN,2,0.7,001123,   NaN,155.6,     NaN,      NaN,NaN,-0.3,NaN,18.786, NaN,NaN,NaN, NaN, NaN
20040713,001914,9810,32.632167,-117.234333,NaN,18.938,33.442,44.978,  NaN,0.0, NaN, NaN, NaN, NaN,23.847,404.677,19.40,1008.74,88.40,NaN,136.0,NaN,5.9,NaN,293.9,NaN,5.9,NaN,NaN, NaN,NaN,60.0,NaN,NaN,NaN,2,0.7,001153,   NaN,155.5,     NaN,      NaN,NaN,-0.4,NaN,18.943, NaN,NaN,NaN, NaN, NaN
20040713,001944,9840,32.632167,-117.234333,NaN,18.746,33.439,44.787,  NaN,0.0, NaN, NaN, NaN, NaN,23.892,400.340,19.50,1008.74,88.60,NaN,136.0,NaN,5.6,NaN,297.6,NaN,6.0,NaN,NaN, NaN,NaN,61.0,NaN,NaN,NaN,2,0.6,001183,   NaN,156.7,     NaN,      NaN,NaN,-0.5,NaN,18.751, NaN,NaN,NaN, NaN, NaN
20040713,002014,9870,32.632333,-117.234167,NaN,18.620,33.449,44.676,  NaN,0.0, NaN, NaN, NaN, NaN,23.931,396.606,19.40,1008.72,88.30,NaN,137.0,NaN,6.2,NaN,297.0,NaN,6.3,NaN,NaN, NaN,NaN,47.0,NaN,NaN,NaN,2,0.6,001213,   NaN,157.1,     NaN,      NaN,NaN,-0.5,NaN,18.624, NaN,NaN,NaN, NaN, NaN
20040713,002045,9901,32.632333,-117.234167,NaN,18.636,33.417,44.654,  NaN,0.0, NaN, NaN, NaN, NaN,23.903,399.279,19.50,1008.70,89.00,NaN,133.0,NaN,6.2,NaN,296.9,NaN,6.4,NaN,NaN, NaN,NaN,50.0,NaN,NaN,NaN,2,0.6,001243,   NaN,157.1,     NaN,      NaN,NaN,-0.6,NaN,18.640, NaN,NaN,NaN, NaN, NaN
20040713,002115,9931,32.632333,-117.234000,NaN,18.789,33.441,44.832,  NaN,0.0, NaN, NaN, NaN, NaN,23.883,401.184,19.40,1008.77,87.90,NaN,132.0,NaN,6.2,NaN,289.6,NaN,6.7,NaN,NaN, NaN,NaN,30.0,NaN,NaN,NaN,2,0.7,001273,   NaN,155.9,     NaN,      NaN,NaN,-0.8,NaN,18.794, NaN,NaN,NaN, NaN, NaN
20040713,002144,9960,32.632500,-117.234000,NaN,18.870,33.420,44.885,  NaN,0.0, NaN, NaN, NaN, NaN,23.847,404.668,19.40,1008.77,88.50,NaN,134.0,NaN,6.4,NaN,287.6,NaN,6.7,NaN,NaN, NaN,NaN,45.0,NaN,NaN,NaN,2,0.7,001303,   NaN,153.9,     NaN,      NaN,NaN,-0.6,NaN,18.875, NaN,NaN,NaN, NaN, NaN
20040713,002214,9990,32.632500,-117.233833,NaN,19.004,33.439,45.037,  NaN,0.0, NaN, NaN, NaN, NaN,23.828,406.498,19.40,1008.70,88.80,NaN,136.0,NaN,6.2,NaN,290.2,NaN,6.4,NaN,NaN, NaN,NaN,36.0,NaN,NaN,NaN,2,0.7,001333,   NaN,151.9,     NaN,      NaN,NaN,-0.6,NaN,19.008, NaN,NaN,NaN, NaN, NaN
20040713,002245,10021,32.632667,-117.233833,NaN,18.851,33.454,44.906,  NaN,0.0, NaN, NaN, NaN, NaN,23.877,401.755,19.40,1008.79,88.10,NaN,128.0,NaN,6.5,NaN,281.6,NaN,6.7,NaN,NaN, NaN,NaN,22.0,NaN,NaN,NaN,2,0.6,001363,   NaN,151.2,     NaN,      NaN,NaN,-0.7,NaN,18.855, NaN,NaN,NaN, NaN, NaN
20040713,002315,10051,32.632667,-117.233667,NaN,18.712,33.466,44.786,  NaN,0.0, NaN, NaN, NaN, NaN,23.921,397.556,19.40,1008.76,88.40,NaN,136.0,NaN,6.2,NaN,288.0,NaN,6.4,NaN,NaN, NaN,NaN,18.0,NaN,NaN,NaN,2,0.5,001393,   NaN,150.1,     NaN,      NaN,NaN,-0.7,NaN,18.717, NaN,NaN,NaN, NaN, NaN
20040713,002344,10080,32.632667,-117.233667,NaN,18.494,33.430,44.533,  NaN,0.0, NaN, NaN, NaN, NaN,23.949,394.948,19.50,1008.63,88.50,NaN,149.0,NaN,6.0,NaN,295.0,NaN,6.3,NaN,NaN, NaN,NaN,15.0,NaN,NaN,NaN,2,0.9,001423,   NaN,143.8,     NaN,      NaN,NaN,-1.0,NaN,18.499, NaN,NaN,NaN, NaN, NaN
20040713,002414,10110,32.633000,-117.233667,NaN,17.945,33.459,44.036,  NaN,0.0, NaN, NaN, NaN, NaN,24.105,380.013,19.50,1008.70,88.50,NaN,160.0,NaN,6.3,NaN,292.7,NaN,6.7,NaN,NaN, NaN,NaN,345.0,NaN,NaN,NaN,2,0.9,001453,   NaN,131.5,     NaN,      NaN,NaN,-1.7,NaN,17.949, NaN,NaN,NaN, NaN, NaN
20040713,002444,10140,32.633000,-117.233667,NaN,17.587,33.431,43.659,  NaN,0.0, NaN, NaN, NaN, NaN,24.171,373.760,19.50,1008.69,88.80,NaN,165.0,NaN,6.3,NaN,286.4,NaN,6.7,NaN,NaN, NaN,NaN,321.0,NaN,NaN,NaN,2,0.9,001483,   NaN,120.4,     NaN,      NaN,NaN,-1.3,NaN,17.592, NaN,NaN,NaN, NaN, NaN
20040713,002515,10171,32.633167,-117.233667,NaN,16.920,33.484,43.080,  NaN,0.0, NaN, NaN, NaN, NaN,24.370,354.803,19.50,1008.76,89.20,NaN,176.0,NaN,5.7,NaN,286.8,NaN,6.2,NaN,NaN, NaN,NaN,299.0,NaN,NaN,NaN,2,1.1,001513,   NaN,110.0,     NaN,      NaN,NaN,-1.7,NaN,16.924, NaN,NaN,NaN, NaN, NaN
20040713,002545,10201,32.633167,-117.233833,NaN,16.796,33.351,42.808,  NaN,0.0, NaN, NaN, NaN, NaN,24.297,361.763,19.50,1008.74,88.60,NaN,187.0,NaN,6.0,NaN,287.2,NaN,6.6,NaN,NaN, NaN,NaN,284.0,NaN,NaN,NaN,2,1.3,001543,   NaN,100.7,     NaN,      NaN,NaN,-1.7,NaN,16.800, NaN,NaN,NaN, NaN, NaN
20040713,002614,10230,32.633500,-117.234167,NaN,17.326,33.353,43.317,  NaN,0.0, NaN, NaN, NaN, NaN,24.173,373.538,19.60,1008.74,89.20,NaN,201.0,NaN,6.1,NaN,290.1,NaN,6.7,NaN,NaN, NaN,NaN,262.0,NaN,NaN,NaN,2,1.2,001573,   NaN,91.1,     NaN,      NaN,NaN,-1.6,NaN,17.330, NaN,NaN,NaN, NaN, NaN
20040713,002644,10260,32.633333,-117.234333,NaN,17.891,33.403,43.918,  NaN,0.0, NaN, NaN, NaN, NaN,24.076,382.824,19.60,1008.79,88.10,NaN,211.0,NaN,6.0,NaN,288.0,NaN,6.5,NaN,NaN, NaN,NaN,251.0,NaN,NaN,NaN,2,1.1,001603,   NaN,79.8,     NaN,      NaN,NaN,-1.3,NaN,17.895, NaN,NaN,NaN, NaN, NaN
20040713,002715,10291,32.633333,-117.234500,NaN,18.212,33.416,44.244,  NaN,0.0, NaN, NaN, NaN, NaN,24.007,389.346,19.60,1008.71,88.30,NaN,219.0,NaN,6.1,NaN,285.3,NaN,6.6,NaN,NaN, NaN,NaN,237.0,NaN,NaN,NaN,2,1.3,001633,   NaN,69.6,     NaN,      NaN,NaN,-1.3,NaN,18.217, NaN,NaN,NaN, NaN, NaN
20040713,002745,10321,32.633333,-117.234667,NaN,18.310,33.421,44.344,  NaN,0.0, NaN, NaN, NaN, NaN,23.987,391.294,19.70,1008.74,88.40,NaN,225.0,NaN,5.5,NaN,278.6,NaN,6.0,NaN,NaN, NaN,NaN,224.0,NaN,NaN,NaN,2,1.3,001663,   NaN,58.0,     NaN,      NaN,NaN,-1.3,NaN,18.314, NaN,NaN,NaN, NaN, NaN
20040713,002814,10350,32.633167,-117.234667,NaN,18.237,33.423,44.275,  NaN,0.0, NaN, NaN, NaN, NaN,24.006,389.459,19.70,1008.72,88.60,NaN,238.0,NaN,5.3,NaN,281.4,NaN,5.7,NaN,NaN, NaN,NaN,205.0,NaN,NaN,NaN,2,1.3,001693,   NaN,49.1,     NaN,      NaN,NaN,-0.8,NaN,18.242, NaN,NaN,NaN, NaN, NaN
20040713,002844,10380,32.633000,-117.234833,NaN,18.390,33.412,44.411,  NaN,0.0, NaN, NaN, NaN, NaN,23.960,393.845,19.70,1008.69,88.30,NaN,242.0,NaN,4.9,NaN,275.3,NaN,5.2,NaN,NaN, NaN,NaN,189.0,NaN,NaN,NaN,2,1.1,001723,   NaN,38.8,     NaN,      NaN,NaN,-0.5,NaN,18.395, NaN,NaN,NaN, NaN, NaN
20040713,002914,10410,32.633000,-117.234833,NaN,18.751,33.439,44.792,  NaN,0.0, NaN, NaN, NaN, NaN,23.891,400.403,19.70,1008.71,87.90,NaN,243.0,NaN,4.5,NaN,268.4,NaN,4.8,NaN,NaN, NaN,NaN,179.0,NaN,NaN,NaN,2,1.0,001753,   NaN,31.0,     NaN,      NaN,NaN,-0.6,NaN,18.755, NaN,NaN,NaN, NaN, NaN
20040713,002945,10441,32.632833,-117.234833,NaN,18.701,33.461,44.770,  NaN,0.0, NaN, NaN, NaN, NaN,23.921,397.615,19.70,1008.69,88.10,NaN,259.0,NaN,5.0,NaN,280.6,NaN,5.1,NaN,NaN, NaN,NaN,173.0,NaN,NaN,NaN,2,1.1,001783,   NaN,27.7,     NaN,      NaN,NaN,-0.4,NaN,18.705, NaN,NaN,NaN, NaN, NaN
20040713,003015,10471,32.632667,-117.234833,NaN,18.028,33.456,44.113,  NaN,0.0, NaN, NaN, NaN, NaN,24.083,382.145,19.70,1008.70,88.00,NaN,248.0,NaN,4.5,NaN,270.4,NaN,4.8,NaN,NaN, NaN,NaN,169.0,NaN,NaN,NaN,2,1.1,001813,   NaN,28.7,     NaN,      NaN,NaN,-0.3,NaN,18.032, NaN,NaN,NaN, NaN, NaN
20040713,003044,10500,32.632500,-117.234833,NaN,17.610,33.384,43.626,  NaN,0.0, NaN, NaN, NaN, NaN,24.129,377.725,19.90,1008.61,88.10,NaN,257.0,NaN,5.0,NaN,281.7,NaN,5.1,NaN,NaN, NaN,NaN,173.0,NaN,NaN,NaN,2,0.9,001843,   NaN,30.3,     NaN,      NaN,NaN,-0.4,NaN,17.614, NaN,NaN,NaN, NaN, NaN
20040713,003114,10530,32.632333,-117.234833,NaN,17.927,33.401,43.951,  NaN,0.0, NaN, NaN, NaN, NaN,24.066,383.780,19.70,1008.61,87.80,NaN,259.0,NaN,5.3,NaN,285.9,NaN,5.4,NaN,NaN, NaN,NaN,176.0,NaN,NaN,NaN,2,1.0,001873,   NaN,32.6,     NaN,      NaN,NaN,-0.5,NaN,17.931, NaN,NaN,NaN, NaN, NaN
20040713,003145,10561,32.632333,-117.234833,NaN,18.115,33.406,44.138,  NaN,0.0, NaN, NaN, NaN, NaN,24.024,387.769,19.90,1008.70,88.10,NaN,253.0,NaN,4.5,NaN,282.8,NaN,4.7,NaN,NaN, NaN,NaN,171.0,NaN,NaN,NaN,2,1.1,001903,   NaN,35.8,     NaN,      NaN,NaN,-0.4,NaN,18.119, NaN,NaN,NaN, NaN, NaN
20040713,003215,10591,32.632167,-117.234667,NaN,18.131,33.422,44.172,  NaN,0.0, NaN, NaN, NaN, NaN,24.032,387.007,19.90,1008.67,88.00,NaN,243.0,NaN,5.4,NaN,276.9,NaN,5.7,NaN,NaN, NaN,NaN,176.0,NaN,NaN,NaN,2,1.1,001933,   NaN,39.0,     NaN,      NaN,NaN,-0.4,NaN,18.135, NaN,NaN,NaN, NaN, NaN
20040713,003244,10620,32.632000,-117.234667,NaN,18.074,33.420,44.114,  NaN,0.0, NaN, NaN, NaN, NaN,24.044,385.840,19.70,1008.73,87.40,NaN,246.0,NaN,5.3,NaN,283.7,NaN,5.6,NaN,NaN, NaN,NaN,180.0,NaN,NaN,NaN,2,1.2,001963,   NaN,43.6,     NaN,      NaN,NaN,-0.3,NaN,18.078, NaN,NaN,NaN, NaN, NaN
20040713,003314,10650,32.631833,-117.234667,NaN,18.303,33.414,44.329,  NaN,0.0, NaN, NaN, NaN, NaN,23.983,391.650,19.90,1008.68,87.80,NaN,239.0,NaN,5.3,NaN,281.1,NaN,5.6,NaN,NaN, NaN,NaN,172.0,NaN,NaN,NaN,2,1.0,001993,   NaN,46.4,     NaN,      NaN,NaN,-0.3,NaN,18.307, NaN,NaN,NaN, NaN, NaN
20040713,003345,10681,32.631667,-117.234667,NaN,18.583,33.428,44.616,  NaN,0.0, NaN, NaN, NaN, NaN,23.925,397.232,19.90,1008.74,87.90,NaN,235.0,NaN,4.9,NaN,278.4,NaN,5.2,NaN,NaN, NaN,NaN,168.0,NaN,NaN,NaN,2,1.1,002023,   NaN,47.6,     NaN,      NaN,NaN,-0.2,NaN,18.587, NaN,NaN,NaN, NaN, NaN
20040713,003415,10711,32.631667,-117.234667,NaN,18.814,33.434,44.846,  NaN,0.0, NaN, NaN, NaN, NaN,23.871,402.328,19.90,1008.67,87.40,NaN,234.0,NaN,5.0,NaN,278.9,NaN,5.3,NaN,NaN, NaN,NaN,168.0,NaN,NaN,NaN,2,0.9,002053,   NaN,49.0,     NaN,      NaN,NaN,-0.2,NaN,18.818, NaN,NaN,NaN, NaN, NaN
20040713,003445,10741,32.631500,-117.234667,NaN,18.942,33.447,44.987,  NaN,0.0, NaN, NaN, NaN, NaN,23.849,404.461,19.70,1008.71,87.50,NaN,231.0,NaN,5.3,NaN,278.3,NaN,5.6,NaN,NaN, NaN,NaN,171.0,NaN,NaN,NaN,2,1.0,002083,   NaN,52.0,     NaN,      NaN,NaN,-0.3,NaN,18.947, NaN,NaN,NaN, NaN, NaN
20040713,003514,10770,32.631500,-117.234667,NaN,18.925,33.454,44.979,  NaN,0.0, NaN, NaN, NaN, NaN,23.859,403.479,19.70,1008.69,87.20,NaN,230.0,NaN,5.4,NaN,279.5,NaN,5.7,NaN,NaN, NaN,NaN,177.0,NaN,NaN,NaN,2,1.0,002113,   NaN,53.5,     NaN,      NaN,NaN,-0.3,NaN,18.929, NaN,NaN,NaN, NaN, NaN
20040713,003544,10800,32.631333,-117.234667,NaN,18.535,33.466,44.614,  NaN,0.0, NaN, NaN, NaN, NaN,23.965,393.350,19.70,1008.64,87.40,NaN,233.0,NaN,5.6,NaN,283.7,NaN,5.9,NaN,NaN, NaN,NaN,187.0,NaN,NaN,NaN,2,0.9,002143,   NaN,54.3,     NaN,      NaN,NaN,-0.3,NaN,18.539, NaN,NaN,NaN, NaN, NaN
20040713,003615,10831,32.631167,-117.234667,NaN,17.958,33.458,44.048,  NaN,0.0, NaN, NaN, NaN, NaN,24.102,380.366,19.70,1008.69,87.90,NaN,235.0,NaN,5.0,NaN,283.3,NaN,5.3,NaN,NaN, NaN,NaN,183.0,NaN,NaN,NaN,2,1.0,002173,   NaN,52.9,     NaN,      NaN,NaN,-0.3,NaN,17.962, NaN,NaN,NaN, NaN, NaN
20040713,003645,10861,32.631167,-117.234667,NaN,17.957,33.396,43.974,  NaN,0.0, NaN, NaN, NaN, NaN,24.055,384.842,19.70,1008.65,87.50,NaN,239.0,NaN,4.9,NaN,283.4,NaN,5.2,NaN,NaN, NaN,NaN,189.0,NaN,NaN,NaN,2,1.0,002203,   NaN,49.3,     NaN,      NaN,NaN,-0.5,NaN,17.961, NaN,NaN,NaN, NaN, NaN
20040713,003714,10890,32.631167,-117.234667,NaN,18.525,33.434,44.567,  NaN,0.0, NaN, NaN, NaN, NaN,23.944,395.379,19.70,1008.63,87.60,NaN,243.0,NaN,5.7,NaN,285.2,NaN,5.9,NaN,NaN, NaN,NaN,192.0,NaN,NaN,NaN,2,1.1,002233,   NaN,47.1,     NaN,      NaN,NaN,-0.4,NaN,18.529, NaN,NaN,NaN, NaN, NaN
20040713,003744,10920,32.630833,-117.234667,NaN,17.873,33.439,43.943,  NaN,0.0, NaN, NaN, NaN, NaN,24.107,379.803,19.70,1008.65,87.10,NaN,242.0,NaN,5.1,NaN,280.5,NaN,5.4,NaN,NaN, NaN,NaN,188.0,NaN,NaN,NaN,2,1.0,002263,   NaN,43.4,     NaN,      NaN,NaN,-0.4,NaN,17.877, NaN,NaN,NaN, NaN, NaN
20040713,003814,10950,32.630667,-117.234667,NaN,17.458,33.417,43.519,  NaN,0.0, NaN, NaN, NaN, NaN,24.191,371.831,19.70,1008.58,87.60,NaN,246.0,NaN,5.4,NaN,282.7,NaN,5.7,NaN,NaN, NaN,NaN,195.0,NaN,NaN,NaN,2,1.0,002293,   NaN,41.9,     NaN,      NaN,NaN,-0.3,NaN,17.463, NaN,NaN,NaN, NaN, NaN
20040713,003845,10981,32.630500,-117.234667,NaN,17.380,33.407,43.432,  NaN,0.0, NaN, NaN, NaN, NaN,24.202,370.795,19.60,1008.60,87.20,NaN,250.0,NaN,5.5,NaN,284.0,NaN,5.7,NaN,NaN, NaN,NaN,183.0,NaN,NaN,NaN,2,0.9,002323,   NaN,38.5,     NaN,      NaN,NaN,-0.2,NaN,17.384, NaN,NaN,NaN, NaN, NaN
20040713,003915,11011,32.630333,-117.234667,NaN,17.186,33.407,43.245,  NaN,0.0, NaN, NaN, NaN, NaN,24.248,366.412,19.70,1008.60,87.80,NaN,259.0,NaN,5.2,NaN,288.2,NaN,5.3,NaN,NaN, NaN,NaN,164.0,NaN,NaN,NaN,2,0.9,002353,   NaN,34.1,     NaN,      NaN,NaN,-0.1,NaN,17.190, NaN,NaN,NaN, NaN, NaN
20040713,003944,11040,32.630333,-117.234667,NaN,17.513,33.365,43.511,  NaN,0.0, NaN, NaN, NaN, NaN,24.138,376.915,19.90,1008.65,87.80,NaN,263.0,NaN,5.8,NaN,290.1,NaN,5.8,NaN,NaN, NaN,NaN,152.0,NaN,NaN,NaN,2,0.8,002383,   NaN,31.6,     NaN,      NaN,NaN,0.2,NaN,17.518, NaN,NaN,NaN, NaN, NaN
20040713,004014,11070,32.630167,-117.234667,NaN,18.046,33.420,44.088,  NaN,0.0, NaN, NaN, NaN, NaN,24.051,385.221,19.90,1008.58,87.60,NaN,259.0,NaN,5.4,NaN,282.9,NaN,5.5,NaN,NaN, NaN,NaN,123.0,NaN,NaN,NaN,2,0.7,002413,   NaN,27.4,     NaN,      NaN,NaN,0.2,NaN,18.051, NaN,NaN,NaN, NaN, NaN
20040713,004045,11101,32.630167,-117.234667,NaN,18.437,33.438,44.486,  NaN,0.0, NaN, NaN, NaN, NaN,23.969,393.052,19.90,1008.57,87.60,NaN,275.0,NaN,5.2,NaN,292.3,NaN,5.2,NaN,NaN, NaN,NaN,110.0,NaN,NaN,NaN,2,0.7,002443,   NaN,21.0,     NaN,      NaN,NaN,0.2,NaN,18.441, NaN,NaN,NaN, NaN, NaN